Location: Basse Occidentale du Courleau
(48.3833°N, 4.8333°W)
Time: 19:45:59
(UTC+00:00)

Cosmos 2278 Rocket - Pass Details

Date: 05 July 2020
Orbit: 841 x 846 km, 71.0° (Epoch: 05 August)

Event Time Altitude Azimuth Distance (km) Brightness Sun altitude
Rises 22:43:17 0° 330° (NNW) 3,416 7.2 -15.4°
Reaches altitude 10° 22:45:45 10° 330° (NNW) 2,477 6.0 -15.6°
Maximum altitude 22:51:25 76° 245° (WSW) 874 2.2 -16.0°
Enters shadow 22:54:45 26° 164° (SSE) 1,616 3.1 -16.2°
